EW0531 Weather Reports


Display with metric or nautical units.
time (UTC)temp
F
wind
direction
speed
MPH
gust
MPH
rain 1hr
in
rain 24hr
in
rain mn
in
humidity
%
barometer
mb
20260903063535 66 215 3.0 9.0 0.01 0.03 0.01 90 1018.4
20260903063058 66 221 2.0 9.0 0.01 0.03 0.01 89 1018.6
20260903062539 66 205 5.0 12.0 0.01 0.03 0.01 89 1018.6
20260903062036 66 0 2.0 12.0 0.01 0.03 0.01 89 1018.6
20260903061604 66 274 3.0 8.0 0.01 0.03 0.01 89 1018.6
20260903061037 66 197 2.0 6.0 0.01 0.03 0.01 89 1018.6
20260903060536 66 0 2.0 8.0 0.00 0.02 0.00 89 1018.6
20260903060106 66 225 3.0 8.0 0.00 0.02 0.00 89 1018.6
20260903055536 66 219 2.0 9.0 0.00 0.02 0.00 89 1018.6
20260903055033 66 275 3.0 10.0 0.00 0.01 0.00 89 1018.5
20260903054559 66 198 5.0 10.0 0.00 0.01 0.00 89 1018.5
20260903054036 66 221 3.0 9.0 0.00 0.01 0.00 89 1018.5
20260903053547 66 245 3.0 12.0 0.00 0.01 0.00 89 1018.6
20260903053109 66 215 4.0 12.0 0.00 0.01 0.00 89 1018.5
20260903052538 66 214 5.0 11.0 0.00 0.01 0.00 89 1018.5
20260903052037 66 229 3.0 13.0 0.00 0.01 0.00 89 1018.5
20260903051607 66 262 6.0 14.0 0.00 0.01 0.00 89 1018.3
20260903051038 66 206 7.0 14.0 0.00 0.01 0.00 89 1018.1
20260903050536 66 257 5.0 14.0 0.00 0.01 0.00 89 1018.0
20260903050108 66 223 6.0 14.0 0.00 0.01 0.00 89 1017.9
20260903045537 66 255 6.0 13.0 0.00 0.01 0.00 89 1018.0
20260903045036 66 238 7.0 14.0 0.00 0.01 0.00 89 1018.1
20260903044606 66 232 8.0 14.0 0.00 0.01 0.00 89 1018.0
20260903044035 66 244 7.0 16.0 0.00 0.01 0.00 89 1017.9
20260903043539 66 176 8.0 16.0 0.00 0.01 0.00 89 1017.9
20260903043054 66 261 8.0 16.0 0.00 0.01 0.00 88 1017.9
20260903042538 66 257 7.0 16.0 0.00 0.01 0.00 88 1017.9
20260903042038 66 252 6.0 16.0 0.00 0.01 0.00 88 1017.9
20260903041602 66 240 9.0 18.0 0.00 0.01 0.00 88 1017.7
20260903041038 66 259 8.0 18.0 0.00 0.01 0.00 88 1017.7
20260903040538 66 218 8.0 18.0 0.00 0.01 0.00 88 1017.6
20260903040109 66 237 6.0 19.0 0.00 0.01 0.00 88 1017.7
20260903035537 66 272 8.0 19.0 0.00 0.01 0.00 88 1017.8
20260903035037 66 214 7.0 18.0 0.00 0.01 0.00 88 1017.8
20260903034554 66 216 5.0 13.0 0.00 0.01 0.00 88 1017.7
20260903034037 66 204 7.0 14.0 0.00 0.01 0.00 88 1017.7
20260903033533 66 263 6.0 14.0 0.00 0.01 0.00 88 1017.7
20260903033105 66 217 6.0 16.0 0.00 0.01 0.00 88 1017.8
20260903032537 66 257 7.0 16.0 0.00 0.01 0.00 88 1017.8
20260903032034 66 200 6.0 14.0 0.00 0.01 0.00 88 1017.7
20260903031612 66 213 5.0 14.0 0.00 0.01 0.00 88 1018.0
20260903031036 66 271 7.0 14.0 0.00 0.01 0.00 88 1018.0
20260903030534 66 224 6.0 14.0 0.00 0.01 0.00 88 1018.1
20260903030113 66 266 5.0 12.0 0.00 0.01 0.00 88 1017.9
20260903025535 66 251 5.0 12.0 0.00 0.01 0.00 88 1017.9
20260903025037 66 246 5.0 12.0 0.00 0.01 0.00 88 1017.7
20260903024555 66 219 4.0 12.0 0.00 0.01 0.00 87 1017.8
20260903024036 66 255 6.0 15.0 0.00 0.01 0.00 87 1018.1
20260903023536 66 282 6.0 15.0 0.00 0.01 0.00 87 1018.0
20260903023101 66 219 6.0 14.0 0.00 0.01 0.00 87 1017.9
20260903022538 66 211 4.0 10.0 0.00 0.01 0.00 87 1017.9
20260903022038 66 227 4.0 11.0 0.00 0.01 0.00 87 1017.8
20260903021559 66 211 7.0 12.0 0.00 0.01 0.00 87 1017.9
20260903021037 66 261 6.0 12.0 0.00 0.01 0.00 87 1018.0
20260903020537 66 225 4.0 12.0 0.00 0.01 0.00 87 1017.9
20260903020100 66 257 6.0 13.0 0.00 0.01 0.00 87 1018.0
20260903015538 66 210 5.0 14.0 0.00 0.01 0.00 87 1018.1
20260903015040 66 215 3.0 14.0 0.00 0.01 0.00 87 1018.0
20260903014610 66 232 6.0 13.0 0.00 0.01 0.00 87 1018.1
20260903014038 66 222 5.0 11.0 0.00 0.01 0.00 87 1018.0
20260903013540 66 249 4.0 10.0 0.00 0.01 0.00 87 1017.9
20260903013102 66 267 4.0 10.0 0.00 0.01 0.00 87 1017.8
20260903012538 66 245 5.0 10.0 0.00 0.01 0.00 87 1017.9
20260903012042 66 237 5.0 13.0 0.00 0.01 0.00 87 1018.0
20260903011608 66 242 6.0 17.0 0.00 0.01 0.00 87 1018.0
20260903011038 66 223 6.0 17.0 0.00 0.01 0.00 87 1018.1
20260903010541 66 239 8.0 17.0 0.00 0.01 0.00 87 1018.1
20260903010117 66 257 6.0 14.0 0.00 0.01 0.00 87 1018.1
20260903005541 66 252 5.0 13.0 0.00 0.01 0.00 87 1018.2
20260903005038 66 224 5.0 11.0 0.00 0.01 0.00 87 1018.2
20260903004559 66 259 5.0 11.0 0.00 0.01 0.00 87 1018.2
20260903004039 66 264 5.0 10.0 0.00 0.01 0.00 87 1018.3
20260903003536 66 221 3.0 12.0 0.00 0.01 0.00 87 1018.2
20260903003058 66 270 6.0 14.0 0.00 0.01 0.00 87 1018.3
20260903002536 66 213 6.0 17.0 0.00 0.01 0.00 87 1018.3
20260903002036 66 221 7.0 17.0 0.00 0.01 0.00 87 1018.4
20260903001604 66 261 9.0 16.0 0.00 0.01 0.00 86 1018.6
20260903001036 66 209 5.0 17.0 0.00 0.01 0.00 86 1018.6
20260903000536 66 286 7.0 17.0 0.00 0.01 0.00 86 1018.8
20260903000100 66 259 7.0 17.0 0.00 0.01 0.00 86 1018.8
20260902235533 66 236 6.0 17.0 0.00 0.01 0.00 86 1018.6
20260902235033 66 227 6.0 16.0 0.00 0.01 0.00 86 1018.4
20260902234556 66 261 6.0 15.0 0.00 0.01 0.00 86 1018.4
20260902234037 66 246 6.0 12.0 0.00 0.01 0.00 86 1018.3
20260902233536 66 218 7.0 13.0 0.00 0.01 0.00 86 1018.3
20260902233059 66 254 7.0 15.0 0.00 0.01 0.00 86 1018.2
20260902232536 66 197 8.0 15.0 0.00 0.01 0.00 86 1018.1
20260902232034 66 214 8.0 14.0 0.00 0.01 0.00 86 1018.2
20260902231610 66 262 4.0 15.0 0.00 0.01 0.00 86 1018.4
20260902231036 66 240 4.0 15.0 0.00 0.01 0.00 86 1018.5
20260902230535 66 227 7.0 15.0 0.00 0.01 0.00 86 1018.5
20260902230057 66 208 6.0 17.0 0.00 0.01 0.00 86 1018.5
20260902225536 66 231 7.0 17.0 0.00 0.01 0.01 86 1018.5
20260902225035 66 290 7.0 17.0 0.00 0.01 0.01 86 1018.6
20260902224604 66 238 4.0 11.0 0.00 0.01 0.01 86 1018.7
20260902224036 66 221 5.0 11.0 0.00 0.01 0.01 86 1018.8
20260902223535 66 264 5.0 10.0 0.00 0.01 0.01 86 1018.8
20260902223106 66 240 4.0 12.0 0.00 0.01 0.01 86 1018.8
20260902222538 66 199 5.0 12.0 0.00 0.01 0.01 86 1018.8
20260902222036 66 276 6.0 10.0 0.00 0.01 0.01 86 1018.7
20260902221627 66 184 4.0 10.0 0.00 0.01 0.01 86 1018.6
20260902221034 66 229 5.0 10.0 0.00 0.01 0.01 86 1018.6
20260902220536 66 192 4.0 12.0 0.00 0.01 0.01 86 1018.6
20260902220104 66 205 6.0 12.0 0.00 0.01 0.01 86 1018.6
20260902215535 66 211 4.0 13.0 0.00 0.01 0.01 86 1018.7
20260902215035 66 210 5.0 13.0 0.00 0.01 0.01 87 1018.7
20260902214601 66 244 6.0 14.0 0.00 0.01 0.01 87 1018.7
20260902214036 66 212 5.0 14.0 0.00 0.01 0.01 87 1018.5
20260902213539 66 214 6.0 14.0 0.00 0.01 0.01 87 1018.4
20260902213107 66 249 4.0 14.0 0.00 0.01 0.01 86 1018.3
20260902212539 66 246 5.0 14.0 0.00 0.01 0.01 86 1018.2
20260902212038 66 266 5.0 13.0 0.00 0.01 0.01 86 1018.2
20260902211603 66 205 6.0 13.0 0.00 0.01 0.01 86 1018.3
20260902211039 66 232 4.0 12.0 0.00 0.01 0.01 86 1018.2
20260902210541 66 202 4.0 13.0 0.00 0.01 0.01 86 1018.2
20260902205538 66 225 4.0 10.0 0.00 0.01 0.01 86 1018.3
20260902205037 66 207 4.0 10.0 0.00 0.01 0.01 86 1018.3
20260902204557 66 252 3.0 15.0 0.00 0.01 0.01 86 1018.5
20260902204037 66 228 5.0 15.0 0.00 0.01 0.01 86 1018.6
20260902203535 66 265 4.0 11.0 0.00 0.01 0.01 86 1018.7
20260902203055 66 291 5.0 14.0 0.00 0.01 0.01 86 1018.7
20260902202536 66 264 5.0 14.0 0.00 0.01 0.01 86 1018.5
20260902202036 66 238 5.0 15.0 0.00 0.01 0.01 86 1018.4
20260902201609 66 256 8.0 16.0 0.00 0.01 0.01 86 1018.3
20260902201033 66 250 4.0 16.0 0.00 0.01 0.01 86 1018.3
20260902200536 66 216 4.0 13.0 0.00 0.01 0.01 86 1018.4
20260902200100 66 254 6.0 13.0 0.00 0.01 0.01 86 1018.3
20260902195533 66 248 4.0 15.0 0.00 0.01 0.01 86 1018.3
20260902195033 66 228 6.0 15.0 0.00 0.01 0.01 86 1018.3
20260902194555 66 240 7.0 14.0 0.00 0.01 0.01 86 1018.2
20260902194033 66 276 6.0 16.0 0.00 0.01 0.01 86 1018.2
20260902193535 66 215 9.0 16.0 0.00 0.01 0.01 86 1018.1
20260902193108 66 230 7.0 18.0 0.00 0.01 0.01 86 1017.9
20260902192537 66 261 6.0 18.0 0.00 0.01 0.01 86 1017.9
20260902192036 66 225 8.0 18.0 0.00 0.01 0.01 86 1018.1
20260902191631 66 255 7.0 16.0 0.00 0.01 0.01 86 1018.2
20260902191033 66 250 8.0 19.0 0.00 0.01 0.01 86 1018.1
20260902190533 66 212 7.0 19.0 0.00 0.01 0.01 86 1018.0
20260902190101 66 218 8.0 18.0 0.00 0.01 0.01 86 1017.8
20260902185535 66 204 7.0 18.0 0.00 0.01 0.01 86 1017.8
20260902185037 66 217 6.0 19.0 0.00 0.01 0.01 87 1017.7
20260902184559 66 157 6.0 19.0 0.00 0.01 0.01 87 1017.7
20260902184033 66 219 8.0 18.0 0.00 0.01 0.01 87 1017.8
20260902183533 66 252 7.0 18.0 0.00 0.01 0.01 87 1017.5
20260902183129 66 271 7.0 18.0 0.00 0.01 0.01 87 1017.7
20260902182533 66 219 8.0 17.0 0.00 0.01 0.01 87 1017.7
20260902182036 66 251 7.0 17.0 0.00 0.01 0.01 87 1017.7
20260902181612 66 227 7.0 18.0 0.00 0.01 0.01 87 1017.6
20260902181035 66 281 7.0 18.0 0.00 0.01 0.01 87 1017.8
20260902180533 66 224 8.0 18.0 0.00 0.01 0.01 87 1017.7
20260902175533 66 245 9.0 18.0 0.00 0.01 0.01 88 1017.8
20260902175034 66 217 6.0 17.0 0.00 0.01 0.01 88 1017.9
20260902174611 66 246 6.0 19.0 0.00 0.01 0.01 88 1017.7
20260902174036 66 252 7.0 19.0 0.00 0.01 0.01 88 1017.8
20260902173535 66 205 8.0 19.0 0.00 0.01 0.01 88 1017.7
20260902173112 66 256 9.0 18.0 0.00 0.01 0.01 88 1017.8
20260902172533 66 220 10.0 18.0 0.00 0.01 0.01 89 1017.7
20260902172034 66 247 8.0 17.0 0.00 0.01 0.01 88 1017.8
20260902171614 66 205 9.0 16.0 0.00 0.01 0.01 89 1017.9
20260902171033 66 201 8.0 18.0 0.00 0.01 0.01 89 1018.0
20260902170533 66 221 11.0 18.0 0.00 0.01 0.01 89 1018.0
20260902170058 66 257 8.0 18.0 0.00 0.01 0.01 89 1017.9
20260902165536 66 227 9.0 18.0 0.00 0.01 0.01 89 1017.8
20260902165035 66 263 8.0 19.0 0.00 0.01 0.01 89 1017.8
20260902164606 66 229 9.0 19.0 0.00 0.01 0.01 89 1017.9
20260902164036 66 167 10.0 18.0 0.00 0.01 0.01 88 1018.0
20260902163534 66 256 8.0 18.0 0.00 0.01 0.01 88 1017.9
20260902163103 66 182 7.0 17.0 0.00 0.01 0.01 88 1017.9
20260902162533 66 203 9.0 17.0 0.00 0.01 0.01 88 1018.1
20260902162033 66 233 8.0 21.0 0.00 0.01 0.01 88 1018.0
20260902161602 66 219 8.0 21.0 0.00 0.01 0.01 88 1018.0
20260902161034 66 179 7.0 18.0 0.00 0.01 0.01 88 1017.9
20260902160534 66 212 9.0 19.0 0.00 0.01 0.01 88 1018.1
20260902155534 66 213 8.0 15.0 0.00 0.01 0.01 88 1018.2
20260902155033 66 206 6.0 17.0 0.00 0.01 0.01 88 1018.3
20260902154552 66 290 9.0 19.0 0.00 0.01 0.01 88 1018.3
20260902154033 65 240 7.0 19.0 0.00 0.01 0.01 88 1018.3
20260902153534 65 202 8.0 16.0 0.00 0.01 0.01 88 1018.3
20260902153057 66 258 6.0 18.0 0.00 0.01 0.01 88 1018.3
20260902152534 65 219 7.0 18.0 0.00 0.01 0.01 88 1018.4
20260902152033 66 232 8.0 16.0 0.00 0.01 0.01 88 1018.4
20260902151556 65 226 7.0 17.0 0.00 0.01 0.01 88 1018.5
20260902151038 65 265 7.0 17.0 0.00 0.01 0.01 88 1018.3
20260902150538 65 256 8.0 17.0 0.00 0.01 0.01 88 1018.5
20260902150105 65 229 5.0 18.0 0.00 0.01 0.01 88 1018.6
20260902145538 65 213 9.0 21.0 0.00 0.01 0.01 88 1018.7
20260902145037 65 257 11.0 21.0 0.00 0.01 0.01 88 1018.7
20260902144558 65 243 11.0 23.0 0.00 0.01 0.01 88 1018.6
20260902144039 65 243 9.0 23.0 0.00 0.01 0.01 88 1018.7
20260902143538 65 262 9.0 23.0 0.00 0.01 0.01 88 1018.7
20260902143059 65 206 7.0 20.0 0.00 0.01 0.01 89 1018.7
20260902142538 65 227 8.0 23.0 0.00 0.01 0.01 89 1018.7
20260902142038 65 219 11.0 23.0 0.00 0.01 0.01 88 1018.7
20260902141558 65 238 8.0 18.0 0.00 0.01 0.01 88 1018.8
20260902141040 65 219 7.0 22.0 0.01 0.01 0.01 88 1018.9
20260902140537 64 208 9.0 22.0 0.01 0.01 0.01 88 1019.1
20260902140106 64 227 11.0 22.0 0.01 0.01 0.01 88 1019.0
20260902135538 65 267 6.0 16.0 0.01 0.01 0.01 88 1019.2
20260902135038 64 209 7.0 16.0 0.00 0.00 0.00 88 1019.1
20260902134606 64 195 6.0 15.0 0.00 0.00 0.00 88 1019.0
20260902134037 64 202 6.0 15.0 0.00 0.00 0.00 88 1019.0
20260902133538 64 227 7.0 15.0 0.00 0.00 0.00 88 1019.1
20260902133056 65 218 6.0 13.0 0.00 0.00 0.00 87 1019.1
20260902132538 65 229 5.0 13.0 0.00 0.00 0.00 87 1019.1
20260902132041 65 151 5.0 18.0 0.00 0.00 0.00 87 1019.1
20260902131557 65 230 3.0 20.0 0.00 0.00 0.00 87 1019.2
20260902131038 65 233 9.0 20.0 0.00 0.00 0.00 86 1019.2
20260902130537 65 223 8.0 19.0 0.00 0.00 0.00 86 1019.3
20260902125541 65 204 7.0 22.0 0.00 0.00 0.00 85 1019.4
20260902125038 65 200 7.0 19.0 0.00 0.00 0.00 84 1019.4
20260902124601 66 151 12.0 18.0 0.00 0.00 0.00 83 1019.5
20260902124038 66 176 8.0 15.0 0.00 0.00 0.00 81 1019.5
20260902123537 67 224 6.0 14.0 0.00 0.00 0.00 80 1019.4
20260902123101 67 205 5.0 15.0 0.00 0.00 0.00 78 1019.5
20260902122537 68 216 6.0 15.0 0.00 0.00 0.00 76 1019.5
20260902122042 68 223 7.0 20.0 0.00 0.00 0.00 76 1019.6
20260902121557 68 228 10.0 20.0 0.00 0.00 0.00 75 1019.5
20260902121037 68 231 10.0 22.0 0.00 0.00 0.00 74 1019.6
20260902120539 68 223 13.0 22.0 0.00 0.00 0.00 74 1019.6
20260902120109 68 231 9.0 22.0 0.00 0.00 0.00 74 1019.6
20260902115539 68 252 7.0 22.0 0.00 0.00 0.00 74 1019.7
20260902115038 68 173 10.0 24.0 0.00 0.00 0.00 74 1019.8
20260902114600 67 319 14.0 24.0 0.00 0.00 0.00 74 1019.6
20260902114037 67 198 11.0 22.0 0.00 0.00 0.00 75 1019.7
20260902113538 67 230 12.0 22.0 0.00 0.00 0.00 75 1019.8
20260902113104 67 214 11.0 21.0 0.00 0.00 0.00 75 1019.9
20260902112538 67 280 8.0 20.0 0.00 0.00 0.00 75 1019.9
20260902112038 67 212 9.0 20.0 0.00 0.00 0.00 75 1019.9
20260902111607 67 212 9.0 22.0 0.00 0.00 0.00 74 1020.0
20260902111039 67 200 9.0 22.0 0.00 0.00 0.00 75 1019.8
20260902110541 67 206 8.0 21.0 0.00 0.00 0.00 74 1019.8
20260902105540 67 215 6.0 20.0 0.00 0.00 0.00 75 1019.9
20260902105038 67 218 11.0 20.0 0.00 0.00 0.00 75 1020.0
20260902104611 67 204 7.0 20.0 0.00 0.00 0.00 75 1020.1
20260902104038 67 259 10.0 20.0 0.00 0.00 0.00 75 1020.0
20260902103538 67 175 10.0 20.0 0.00 0.00 0.00 75 1020.0
20260902103106 67 163 10.0 16.0 0.00 0.00 0.00 75 1020.1
20260902102538 67 250 7.0 15.0 0.00 0.00 0.00 76 1020.1
20260902102038 67 201 6.0 17.0 0.00 0.00 0.00 76 1020.1
20260902101558 67 215 8.0 17.0 0.00 0.00 0.00 76 1020.0
20260902101038 67 203 8.0 21.0 0.00 0.00 0.00 75 1020.2
20260902100538 67 232 7.0 21.0 0.00 0.00 0.00 75 1020.1
20260902100101 67 259 7.0 17.0 0.00 0.00 0.00 76 1020.2
20260902095538 66 236 8.0 18.0 0.00 0.00 0.00 75 1020.2
20260902095038 66 194 7.0 18.0 0.00 0.00 0.00 76 1020.2
20260902094600 66 214 9.0 16.0 0.00 0.00 0.00 75 1020.3
20260902094038 67 212 8.0 15.0 0.00 0.00 0.00 75 1020.3
20260902093539 67 235 6.0 14.0 0.00 0.00 0.00 75 1020.2
20260902093107 66 228 7.0 15.0 0.00 0.00 0.00 75 1020.3
20260902092541 66 227 7.0 16.0 0.00 0.00 0.00 75 1020.1
20260902092038 66 227 8.0 16.0 0.00 0.00 0.00 76 1020.2
20260902091557 66 215 7.0 16.0 0.00 0.00 0.00 76 1020.2
20260902091037 66 213 5.0 15.0 0.00 0.00 0.00 76 1020.2
20260902090540 66 275 10.0 15.0 0.00 0.00 0.00 75 1020.1
20260902090116 66 213 6.0 18.0 0.00 0.00 0.00 76 1020.1
20260902085533 66 197 9.0 18.0 0.00 0.00 0.00 76 1020.2
20260902085034 66 244 5.0 13.0 0.00 0.00 0.00 77 1020.2
20260902084558 66 205 8.0 14.0 0.00 0.00 0.00 77 1020.1
20260902084034 66 222 7.0 14.0 0.00 0.00 0.00 77 1020.1
20260902083535 66 216 4.0 15.0 0.00 0.00 0.00 78 1020.1
20260902083057 66 244 7.0 15.0 0.00 0.00 0.00 78 1020.1
20260902082534 66 227 5.0 12.0 0.00 0.00 0.00 78 1020.2
20260902082034 66 202 5.0 11.0 0.00 0.00 0.00 78 1020.0
20260902081602 66 202 5.0 14.0 0.00 0.00 0.00 79 1020.0
20260902081033 66 220 5.0 14.0 0.00 0.00 0.00 79 1020.0
20260902080534 66 216 4.0 14.0 0.00 0.00 0.00 79 1020.0
20260902080056 66 222 6.0 11.0 0.00 0.00 0.00 80 1020.0
20260902075537 66 215 5.0 11.0 0.00 0.00 0.00 80 1020.0
20260902075037 65 213 4.0 12.0 0.00 0.00 0.00 81 1020.0
20260902074559 65 202 5.0 15.0 0.00 0.00 0.00 81 1019.9
20260902074038 65 229 6.0 15.0 0.00 0.00 0.00 81 1019.9
20260902073537 65 200 5.0 13.0 0.00 0.00 0.00 81 1019.8
20260902073056 65 197 5.0 13.0 0.00 0.00 0.00 80 1019.7
20260902072540 65 209 5.0 13.0 0.00 0.00 0.00 81 1019.6
20260902072037 65 225 6.0 12.0 0.00 0.00 0.00 81 1019.8
20260902071559 65 234 4.0 12.0 0.00 0.00 0.00 82 1019.9
20260902071038 65 211 4.0 10.0 0.00 0.00 0.00 83 1019.9
20260902070538 65 225 4.0 10.0 0.00 0.00 0.00 83 1019.7
20260902065537 64 231 1.0 6.0 0.00 0.00 0.00 85 1019.6
20260902065038 64 0 2.0 7.0 0.00 0.00 0.00 85 1019.5
20260902064557 64 0 3.0 8.0 0.00 0.00 0.00 86 1019.4
20260902064037 63 217 2.0 8.0 0.00 0.00 0.00 86 1019.7